Wind_Speed
16 15 14 12 11 12 13 13 15 16 15 14 14 15 17 18 17 15 13 11 10 9 8 8 8 8 8 9 9 10 9 8 8 8 8 8 8 8 8 8 7 7 7 7 7 7 6 5 4
15 15 14 12 12 14 15 16 17 17 16 15 17 18 19 19 19 18 16 14 13 11 10 10 9 9 9 10 10 11 10 10 10 10 9 9 9 9 8 8 8 8 8 8 8 8 7 6 5
15 15 14 13 14 17 18 19 18 16 16 17 19 20 19 19 19 19 19 16 14 13 11 11 10 10 11 11 11 12 12 11 11 11 10 10 10 9 9 9 9 9 9 9 9 9 8 7 7
14 15 14 14 16 18 20 21 19 15 17 20 22 22 21 20 20 19 18 18 16 14 13 12 12 12 12 12 13 13 13 12 12 12 12 11 11 11 11 11 11 11 10 10 10 10 9 8 8
14 14 13 14 18 19 20 21 19 17 18 21 23 24 23 21 19 18 18 18 18 17 15 14 14 14 14 14 14 14 14 14 13 13 13 13 13 13 13 13 12 12 12 12 11 11 10 9 9
14 14 14 16 19 20 21 20 19 18 20 23 24 25 25 21 18 19 19 18 18 18 17 16 15 15 15 15 15 15 15 15 15 15 15 14 14 14 14 14 14 13 13 13 13 12 11 10 10
14 14 14 17 19 20 21 20 19 19 21 25 25 25 26 24 21 20 20 21 20 19 19 18 16 15 15 15 16 16 16 16 16 16 16 16 15 15 15 15 15 15 15 15 14 14 13 13 12
14 13 14 17 21 23 21 18 17 19 22 26 26 26 26 24 23 22 20 17 18 17 18 19 18 16 15 15 15 16 16 17 17 17 17 17 17 17 16 16 16 16 16 16 15 16 15 15 14
14 13 15 20 25 24 22 18 17 20 23 25 27 27 26 26 23 21 19 19 18 17 18 18 18 17 16 16 16 16 17 17 17 18 18 18 17 17 17 17 17 17 17 17 17 17 17 17 17
13 14 18 23 26 24 21 18 19 21 22 24 25 26 25 25 22 21 18 18 20 19 19 17 17 17 16 16 16 17 17 17 18 19 19 18 18 17 18 18 19 19 18 18 19 19 19 19 18
16 18 21 25 25 23 20 19 20 21 22 23 24 25 24 24 22 21 20 19 21 22 21 19 17 17 17 16 17 17 17 18 19 19 19 19 19 18 19 19 19 19 19 19 19 20 20 19 19
19 21 24 26 24 22 21 20 21 22 22 23 24 23 23 22 20 20 19 21 23 22 21 19 17 18 18 17 17 18 18 18 18 19 19 19 19 19 19 20 20 19 19 20 20 19 20 20 20
22 23 25 26 24 22 21 21 21 23 22 22 21 21 22 22 21 22 22 23 24 22 20 17 18 19 18 17 17 17 18 18 18 19 19 20 20 20 20 20 20 20 20 21 21 20 20 19 20
23 24 26 26 24 22 21 21 22 23 22 23 22 21 21 21 22 22 21 23 24 21 18 16 16 17 18 18 18 18 18 18 19 19 19 20 21 21 21 21 21 22 22 21 21 21 21 21 20
24 24 24 23 22 21 20 20 21 23 23 23 21 20 20 21 21 20 20 21 21 21 18 15 15 16 17 17 18 18 18 19 20 20 20 21 22 21 21 21 21 21 22 22 23 22 22 22 21
22 22 21 20 20 19 18 18 19 22 22 21 20 20 21 21 20 19 19 19 20 18 14 15 14 17 17 17 17 18 18 19 20 21 21 22 22 21 22 22 21 22 23 23 23 23 22 22 22
20 19 18 18 17 16 15 14 16 17 18 18 18 20 20 20 19 18 18 18 17 16 14 13 13 14 16 16 17 19 18 19 21 22 23 23 24 23 23 23 22 23 23 24 24 23 24 23 23
17 16 16 15 14 14 13 13 14 14 14 15 17 18 19 19 17 17 17 16 16 17 15 13 13 14 14 15 15 17 19 21 23 23 24 24 24 24 23 22 22 23 24 24 25 24 24 24 24
17 16 15 14 14 14 12 12 13 13 13 14 15 16 17 19 16 15 16 15 15 14 14 12 13 14 15 16 16 18 21 22 23 23 24 24 24 24 24 23 23 24 25 26 26 26 25 25 25
16 14 13 13 13 13 13 13 14 14 14 15 16 16 16 16 15 14 14 14 15 15 14 13 14 15 16 18 19 21 22 23 24 24 24 24 24 24 24 24 24 25 26 27 27 27 27 27 27
16 14 12 12 12 13 14 16 16 16 16 16 15 15 14 15 16 15 14 15 15 16 15 16 16 17 18 19 21 22 22 23 25 24 25 25 25 25 25 25 26 26 27 28 28 28 28 28 28
16 15 14 15 15 15 16 17 16 16 17 16 16 15 14 15 15 15 15 15 16 17 17 18 18 19 19 20 21 23 23 24 25 25 25 25 26 26 26 26 27 27 28 29 29 29 29 29 29
16 17 16 16 18 18 18 18 18 19 19 18 16 15 15 16 15 16 16 16 17 18 18 19 19 20 21 22 23 24 24 25 25 25 25 26 27 27 27 27 28 28 29 29 30 30 30 29 29
16 18 18 17 18 19 19 19 20 19 20 19 18 17 16 16 16 16 16 17 17 18 19 20 21 21 22 23 24 25 25 26 26 26 26 26 27 27 28 28 28 28 29 29 29 29 30 30 30
16 17 17 16 17 18 19 20 20 20 20 19 20 19 17 17 17 17 17 18 19 19 20 21 22 23 24 24 25 25 26 26 26 27 27 27 27 28 28 28 28 28 29 29 29 29 30 29 29
14 16 17 16 16 16 18 20 19 19 18 18 20 19 18 18 17 17 18 19 20 21 21 22 23 24 25 25 25 26 26 27 27 27 27 27 27 27 28 28 28 28 28 28 29 29 29 29 29
14 15 15 16 15 14 15 16 16 15 16 18 19 19 18 17 17 17 19 20 20 22 23 24 25 26 26 27 27 27 27 27 27 27 27 27 27 27 27 27 27 27 28 28 27 28 28 28 27
13 13 14 15 16 16 15 14 13 14 16 18 17 17 18 16 16 18 20 21 22 23 24 26 27 27 28 28 28 28 28 28 28 28 28 28 27 27 27 27 27 27 27 27 26 27 27 27 26
13 14 15 15 15 16 17 15 15 14 14 15 14 15 17 17 18 19 21 22 23 24 25 27 28 28 28 28 29 28 28 28 28 28 28 28 27 27 27 27 27 26 25 26 26 25 25 25 25
13 13 15 15 14 14 16 15 14 14 14 15 14 15 16 18 20 22 23 24 25 26 27 28 28 29 29 30 30 30 29 29 29 28 28 27 26 26 26 26 25 25 25 25 25 24 23 23 23
Wind_Direction
247 244 241 236 225 216 214 213 225 233 237 239 248 258 270 275 279 278 272 268 263 257 250 243 236 230 229 229 229 230 233 235 239 243 253 264 272 278 283 287 287 292 298 300 301 300 301 303 309
246 243 238 228 216 207 207 213 221 231 238 242 253 260 266 273 275 272 265 262 261 257 250 245 240 235 234 235 234 233 237 240 242 245 253 259 265 270 276 281 283 288 292 295 296 294 295 300 304
243 240 234 218 205 202 209 216 222 232 241 247 255 260 263 267 270 267 262 257 254 252 247 244 242 239 238 239 238 235 237 241 244 247 251 254 260 264 268 273 277 282 285 287 290 291 290 295 299
241 238 231 214 199 203 211 219 221 229 246 255 260 263 263 263 264 266 260 253 249 247 243 241 242 240 241 242 240 238 238 240 243 247 249 251 255 260 265 269 272 276 280 282 283 285 287 290 294
239 234 224 208 200 203 210 220 224 230 246 256 262 266 267 264 261 262 255 249 249 247 244 243 243 241 241 241 242 241 240 241 244 246 248 251 255 260 263 266 269 273 276 277 278 280 283 284 287
240 232 218 202 200 204 211 219 225 233 248 254 261 267 270 266 262 256 253 244 245 243 241 240 242 243 243 242 242 243 244 245 247 248 249 251 256 261 263 263 266 269 270 272 273 275 277 279 280
237 229 216 206 203 206 211 219 227 236 248 255 260 267 271 271 267 256 258 252 242 242 238 237 238 241 243 243 243 243 245 247 249 250 251 253 257 260 262 263 264 266 268 269 270 271 272 274 274
232 223 209 202 202 208 215 223 230 241 251 256 261 267 271 272 267 260 260 250 243 240 237 235 235 237 240 241 243 245 246 248 249 251 252 254 257 259 262 263 265 266 267 267 268 269 270 271 270
226 212 200 199 205 211 216 221 235 248 254 258 262 267 268 267 263 262 254 245 238 238 237 237 232 234 236 240 243 245 247 248 249 252 253 256 258 260 262 263 265 266 267 267 267 268 269 268 267
218 201 199 204 211 216 218 223 234 246 251 253 257 263 264 263 260 257 253 246 240 238 236 240 237 235 235 238 241 244 246 247 250 253 254 256 258 260 263 264 265 267 267 267 267 266 266 265 265
213 200 202 207 213 219 222 229 237 245 249 253 256 256 259 260 258 257 260 254 245 240 234 234 232 229 232 236 240 243 245 248 252 255 257 258 259 260 263 265 266 268 269 268 268 266 266 265 264
213 206 205 209 216 220 225 233 240 247 251 254 251 251 254 256 256 259 260 263 255 243 231 228 228 227 230 233 239 244 247 250 253 256 257 256 256 258 262 265 266 268 268 268 267 266 268 266 263
213 210 210 212 217 224 230 234 239 248 252 252 252 252 254 257 265 266 266 267 261 253 240 232 238 237 232 232 238 244 245 249 252 254 256 255 256 261 263 266 267 268 267 267 269 268 268 268 266
216 214 213 216 220 225 232 236 239 247 251 254 257 258 262 265 269 272 269 272 268 263 252 245 237 232 230 229 232 238 244 249 252 253 257 259 259 263 263 265 266 265 265 266 267 267 269 268 267
217 216 216 218 222 226 232 235 238 243 248 254 259 263 269 272 276 277 274 273 274 272 263 254 251 234 229 232 234 238 242 248 253 257 261 261 259 262 262 265 265 264 264 263 267 267 267 266 262
218 215 214 215 220 225 231 235 238 240 244 251 258 264 270 273 277 278 280 283 282 275 262 256 256 237 233 239 244 246 248 253 258 261 263 265 264 262 262 264 264 265 262 263 267 266 265 266 262
213 212 210 211 218 225 233 238 238 238 244 248 255 262 270 275 277 281 284 289 288 278 273 267 268 258 252 253 254 252 258 261 262 263 264 265 265 267 264 266 265 264 263 263 263 264 266 267 265
205 202 203 209 216 226 234 240 240 243 246 252 259 264 271 277 278 280 284 290 288 282 277 275 276 277 268 264 266 266 266 266 267 267 268 270 268 267 265 265 264 265 265 264 265 266 267 267 267
197 197 195 200 209 222 229 238 242 250 256 260 264 268 273 277 284 284 288 290 289 283 277 276 283 283 282 278 274 272 271 271 271 270 269 271 271 269 268 266 264 264 265 265 265 265 266 265 265
195 197 196 201 206 218 226 236 246 255 260 263 265 272 280 283 285 289 288 289 288 286 285 281 282 283 283 282 276 274 273 273 274 274 273 273 272 270 270 269 267 265 265 265 264 264 263 262 264
198 197 200 206 211 218 229 240 250 254 261 265 268 278 283 290 289 292 291 288 289 289 286 284 285 284 283 283 280 277 276 275 276 276 275 275 274 273 273 271 270 267 265 264 263 264 264 263 263
200 198 201 202 209 216 230 244 248 255 260 267 272 278 283 287 286 285 284 284 287 287 287 287 286 285 284 283 281 278 276 275 276 276 277 276 274 273 273 272 271 268 265 264 264 264 265 263 262
198 201 204 208 214 223 233 243 249 256 264 269 273 274 279 285 284 281 280 281 284 285 286 285 285 286 285 284 283 281 278 276 275 276 276 276 276 274 274 273 273 270 267 266 265 264 265 263 262
201 206 212 219 222 226 235 248 256 259 267 270 273 278 278 277 282 282 282 283 285 285 285 285 285 286 287 286 285 282 278 276 275 275 275 275 275 275 274 272 272 271 268 267 266 265 265 264 263
204 210 215 222 228 232 240 250 259 260 262 264 268 272 274 274 281 282 282 285 287 287 287 287 287 287 286 286 285 283 279 277 276 276 275 274 274 274 274 273 271 270 268 267 266 266 266 265 264
212 216 221 227 233 238 243 251 256 263 261 262 265 266 267 270 273 280 282 284 286 287 289 290 290 289 288 287 286 284 281 279 277 276 275 274 275 275 273 272 270 269 268 268 267 267 266 265 263
218 225 232 238 243 251 251 260 260 259 265 272 266 264 269 272 275 281 283 284 285 287 288 289 289 289 288 287 285 283 281 279 277 276 275 275 276 274 272 270 270 269 269 269 268 268 267 265 264
221 229 237 241 248 255 255 265 273 272 275 280 276 268 269 275 282 284 283 284 286 287 288 289 289 289 288 287 285 282 280 278 276 275 275 275 274 273 271 271 270 269 269 269 269 269 268 265 264
222 230 238 243 250 260 265 270 281 288 292 292 281 278 275 280 283 285 289 290 289 288 289 290 290 289 288 286 284 281 279 276 276 275 275 275 273 272 271 271 270 270 269 270 270 270 268 264 261
227 235 241 247 255 264 267 276 286 291 295 299 290 287 286 287 290 291 292 292 291 290 290 290 289 288 287 285 282 280 278 276 276 275 274 273 273 271 271 271 270 269 270 270 269 269 267 265 261
Height
5889 5891 5893 5896 5898 5898 5898 5898 5897 5897 5897 5899 5900 5900 5900 5901 5903 5906 5904 5903 5903 5903 5903 5903 5903 5904 5904 5905 5905 5906 5907 5907 5907 5908 5908 5908 5908 5908 5908 5907 5907 5907 5906 5905 5905 5904 5903 5903 5902
5886 5888 5890 5893 5895 5895 5895 5894 5893 5893 5895 5897 5898 5899 5899 5899 5900 5901 5901 5901 5901 5902 5902 5902 5902 5903 5903 5904 5904 5905 5906 5906 5906 5906 5906 5907 5907 5907 5907 5907 5906 5906 5905 5905 5904 5903 5903 5902 5902
5883 5885 5887 5889 5891 5892 5891 5891 5892 5892 5893 5894 5895 5896 5897 5897 5898 5898 5898 5899 5899 5900 5900 5901 5901 5901 5902 5902 5903 5904 5904 5905 5905 5905 5905 5905 5905 5906 5906 5906 5905 5905 5904 5904 5903 5902 5902 5901 5901
5880 5882 5884 5887 5888 5889 5888 5888 5888 5889 5891 5891 5892 5892 5893 5894 5895 5895 5895 5896 5897 5897 5898 5898 5899 5899 5900 5901 5901 5902 5902 5903 5903 5903 5904 5904 5904 5904 5904 5904 5904 5904 5903 5903 5902 5901 5901 5901 5900
5876 5878 5881 5883 5884 5885 5885 5884 5885 5887 5888 5888 5888 5889 5889 5890 5891 5891 5892 5892 5894 5894 5895 5895 5896 5897 5898 5899 5899 5900 5900 5901 5901 5902 5902 5902 5902 5903 5903 5903 5903 5902 5902 5902 5901 5900 5900 5900 5899
5873 5875 5877 5879 5880 5880 5881 5881 5882 5883 5885 5885 5886 5886 5886 5887 5887 5888 5888 5888 5889 5890 5891 5892 5894 5895 5895 5896 5897 5898 5898 5899 5900 5900 5900 5900 5901 5901 5901 5901 5901 5901 5900 5900 5899 5899 5898 5898 5898
5870 5872 5874 5876 5877 5877 5878 5878 5879 5880 5882 5882 5883 5883 5882 5883 5885 5885 5883 5882 5885 5886 5888 5889 5890 5892 5893 5893 5894 5895 5896 5896 5897 5897 5898 5898 5898 5898 5898 5898 5898 5898 5898 5898 5897 5897 5896 5896 5896
5866 5869 5871 5873 5873 5873 5873 5874 5876 5878 5879 5879 5880 5880 5879 5880 5880 5881 5881 5880 5881 5883 5884 5885 5887 5888 5890 5890 5891 5892 5893 5893 5894 5894 5895 5895 5895 5895 5895 5895 5895 5895 5895 5895 5895 5894 5894 5894 5893
5863 5866 5867 5869 5868 5868 5869 5871 5873 5875 5875 5875 5876 5877 5876 5877 5876 5877 5877 5878 5878 5879 5881 5882 5883 5884 5886 5887 5888 5889 5889 5890 5890 5891 5891 5891 5892 5892 5892 5892 5892 5892 5892 5892 5892 5891 5891 5891 5890
5859 5862 5864 5864 5864 5865 5866 5867 5869 5871 5872 5872 5873 5873 5873 5873 5872 5872 5873 5874 5874 5875 5876 5877 5879 5880 5882 5883 5884 5885 5885 5886 5886 5887 5887 5888 5888 5888 5888 5888 5888 5888 5888 5888 5888 5888 5888 5887 5887
5855 5858 5859 5860 5860 5861 5862 5864 5865 5866 5868 5869 5870 5870 5869 5868 5869 5868 5870 5871 5870 5870 5871 5872 5873 5875 5877 5879 5880 5881 5881 5882 5883 5883 5884 5884 5884 5884 5884 5884 5884 5884 5884 5884 5884 5884 5884 5884 5884
5852 5853 5854 5855 5856 5858 5859 5860 5862 5863 5865 5865 5865 5865 5865 5865 5865 5865 5867 5867 5866 5866 5866 5867 5869 5871 5873 5874 5876 5877 5878 5878 5879 5879 5879 5879 5879 5879 5880 5880 5880 5880 5880 5880 5880 5880 5880 5880 5880
5847 5849 5850 5851 5853 5855 5856 5857 5858 5859 5860 5860 5860 5862 5862 5863 5863 5863 5863 5863 5862 5861 5860 5861 5865 5867 5869 5870 5872 5873 5873 5874 5875 5875 5875 5875 5874 5874 5875 5876 5876 5876 5876 5876 5876 5875 5875 5875 5875
5843 5844 5845 5847 5849 5852 5853 5854 5855 5855 5856 5857 5858 5858 5859 5859 5859 5859 5858 5858 5857 5856 5855 5858 5860 5861 5864 5865 5867 5868 5869 5869 5870 5870 5870 5870 5870 5870 5870 5871 5871 5871 5871 5870 5871 5870 5870 5870 5870
5837 5840 5842 5844 5846 5848 5850 5851 5852 5852 5852 5853 5854 5855 5855 5855 5855 5855 5855 5854 5854 5853 5853 5855 5857 5857 5859 5860 5861 5862 5864 5864 5865 5865 5866 5865 5865 5865 5866 5866 5866 5865 5865 5865 5865 5864 5864 5865 5865
5834 5836 5839 5842 5843 5845 5848 5848 5849 5849 5850 5851 5851 5852 5852 5852 5851 5851 5852 5851 5851 5851 5851 5852 5852 5854 5855 5856 5857 5857 5858 5859 5859 5860 5860 5860 5860 5860 5860 5860 5860 5859 5860 5860 5860 5859 5860 5860 5860
5831 5834 5836 5839 5841 5842 5844 5845 5845 5846 5847 5848 5848 5848 5848 5849 5848 5848 5849 5848 5847 5847 5848 5847 5849 5850 5851 5851 5852 5851 5851 5853 5854 5854 5854 5855 5854 5854 5854 5854 5853 5853 5853 5854 5854 5854 5854 5854 5855
5828 5830 5832 5835 5837 5839 5840 5841 5842 5843 5844 5845 5845 5845 5846 5845 5845 5844 5844 5844 5844 5844 5844 5844 5845 5846 5846 5847 5846 5845 5847 5848 5848 5848 5848 5848 5848 5848 5847 5847 5847 5847 5847 5848 5848 5848 5849 5849 5849
5825 5826 5828 5831 5833 5835 5837 5838 5839 5840 5841 5842 5842 5843 5843 5842 5840 5839 5841 5841 5840 5840 5839 5839 5841 5842 5842 5841 5841 5841 5842 5841 5841 5841 5841 5841 5841 5841 5841 5841 5841 5841 5841 5841 5842 5842 5843 5843 5843
5822 5824 5826 5828 5829 5831 5833 5835 5836 5836 5837 5838 5838 5839 5840 5839 5837 5836 5837 5837 5837 5837 5836 5836 5838 5838 5838 5838 5837 5837 5837 5836 5835 5835 5835 5834 5834 5835 5835 5835 5835 5835 5835 5835 5835 5835 5836 5837 5837
5820 5822 5823 5825 5827 5828 5830 5831 5832 5833 5833 5834 5835 5836 5836 5836 5836 5834 5834 5833 5833 5833 5833 5833 5833 5833 5833 5833 5832 5832 5831 5831 5830 5829 5829 5828 5828 5828 5828 5828 5828 5828 5828 5828 5828 5829 5829 5830 5830
5818 5819 5820 5822 5824 5826 5828 5828 5829 5829 5829 5830 5831 5832 5832 5832 5832 5832 5831 5830 5829 5829 5829 5828 5828 5828 5827 5827 5826 5826 5825 5824 5824 5823 5822 5822 5821 5821 5821 5821 5821 5821 5821 5821 5821 5822 5822 5822 5823
5815 5817 5818 5819 5821 5824 5825 5826 5827 5825 5826 5827 5827 5827 5827 5827 5828 5828 5827 5827 5826 5825 5824 5824 5823 5822 5822 5821 5820 5819 5819 5818 5817 5817 5816 5815 5815 5814 5814 5814 5814 5814 5814 5814 5814 5814 5814 5815 5815
5813 5815 5816 5817 5819 5821 5822 5823 5823 5823 5822 5823 5823 5823 5823 5823 5823 5823 5823 5822 5821 5820 5819 5818 5818 5817 5815 5814 5814 5813 5812 5811 5811 5810 5809 5808 5808 5807 5807 5806 5806 5806 5806 5807 5807 5807 5807 5807 5807
5811 5813 5814 5815 5816 5818 5820 5820 5820 5819 5819 5819 5819 5819 5819 5819 5819 5818 5818 5817 5816 5815 5814 5813 5811 5810 5809 5808 5807 5806 5804 5804 5803 5802 5802 5801 5800 5800 5799 5799 5798 5798 5798 5798 5799 5799 5799 5799 5800
5809 5810 5812 5813 5814 5815 5816 5816 5817 5815 5815 5815 5815 5815 5815 5814 5814 5813 5813 5811 5810 5809 5808 5806 5805 5804 5802 5801 5800 5798 5797 5796 5795 5794 5794 5793 5793 5792 5792 5791 5791 5791 5791 5791 5791 5791 5791 5792 5792
5807 5808 5809 5811 5812 5812 5812 5813 5813 5811 5811 5811 5810 5810 5810 5810 5809 5808 5807 5806 5804 5803 5802 5800 5798 5797 5795 5794 5792 5790 5789 5788 5787 5786 5786 5785 5785 5784 5784 5784 5783 5783 5783 5783 5783 5783 5783 5783 5784
5805 5806 5807 5808 5808 5808 5809 5809 5809 5808 5808 5807 5806 5805 5805 5805 5804 5803 5802 5800 5798 5797 5795 5793 5791 5789 5787 5786 5784 5783 5781 5780 5779 5779 5778 5777 5777 5776 5776 5776 5776 5775 5775 5775 5775 5775 5775 5775 5776
5803 5804 5804 5805 5805 5805 5805 5808 5806 5804 5803 5802 5802 5801 5801 5801 5799 5798 5796 5794 5791 5789 5787 5785 5783 5781 5779 5777 5776 5775 5773 5772 5771 5770 5770 5769 5769 5768 5768 5768 5768 5768 5767 5767 5767 5767 5768 5768 5769
5800 5800 5801 5802 5802 5802 5802 5805 5802 5801 5800 5798 5797 5796 5795 5794 5793 5790 5788 5786 5784 5781 5779 5777 5774 5772 5770 5768 5767 5765 5764 5763 5762 5762 5761 5761 5760 5760 5760 5760 5760 5760 5760 5760 5760 5760 5761 5761 5762